9W2KHE-13 Weather Reports


time (UTC)temp
F
wind
direction
speed
knots
gust
knots
rain 1hr
in
rain 24hr
in
rain mn
in
humidity
%
barometer
mb
20260506201019 84 135 0.0 0.0 0.00 0.00 0.00 72 1009.4
20260506200518 84 135 0.0 0.0 0.00 0.00 0.00 72 1009.3
20260506200020 84 135 0.0 0.0 0.00 0.00 0.00 72 1009.3
20260506195516 84 135 0.0 0.0 0.00 0.00 0.00 72 1009.3
20260506195015 84 135 0.0 0.0 0.00 0.00 0.00 71 1009.4
20260506194514 84 135 0.0 0.0 0.00 0.00 0.00 71 1009.5
20260506194013 84 135 0.0 0.0 0.00 0.00 0.00 71 1009.6
20260506193011 84 135 0.0 0.0 0.00 0.00 0.00 71 1009.6
20260506192509 84 135 0.0 0.0 0.00 0.00 0.00 71 1009.7
20260506185505 85 135 0.0 0.0 0.00 0.00 0.00 70 1009.8
20260506185004 85 135 0.0 0.0 0.00 0.00 0.00 70 1009.7
20260506184001 85 135 0.0 0.0 0.00 0.00 0.00 70 1009.8
20260506181958 85 135 0.0 0.0 0.00 0.00 0.00 69 1010.1
20260506181458 85 135 0.0 0.0 0.00 0.00 0.00 69 1010.2
20260506181002 85 135 0.0 0.0 0.00 0.00 0.00 69 1010.4
20260506180453 85 135 0.0 0.0 0.00 0.00 0.00 69 1010.3
20260506175952 86 135 0.0 0.0 0.00 0.00 0.00 69 1010.5
20260506175451 86 135 0.0 0.0 0.00 0.00 0.00 69 1010.5
20260506174958 86 135 0.0 0.0 0.00 0.00 0.00 69 1010.5
20260506174458 86 135 0.0 0.0 0.00 0.00 0.00 69 1010.6
20260506173948 86 135 0.0 0.0 0.00 0.00 0.00 69 1010.6
20260506173447 86 135 0.0 0.0 0.00 0.00 0.00 69 1010.7
20260506172946 86 135 0.0 0.0 0.00 0.00 0.00 69 1010.6
20260506171954 86 135 0.0 0.0 0.00 0.00 0.00 69 1011.3
20260506171444 86 135 0.0 0.0 0.00 0.00 0.00 69 1011.3
20260506170942 86 135 0.0 0.0 0.00 0.00 0.00 69 1011.2
20260506170441 86 135 0.0 0.0 0.00 0.00 0.00 69 1011.2
20260506165940 86 135 0.0 0.0 0.00 0.00 0.00 69 1011.1
20260506165447 86 135 0.0 0.0 0.00 0.00 0.00 69 1011.1
20260506164938 86 135 0.0 0.0 0.00 0.00 0.00 69 1011.3
20260506164438 86 135 0.0 0.0 0.00 0.00 0.00 69 1011.2
20260506162943 86 135 0.0 0.0 0.00 0.00 0.00 69 1011.3
20260506162432 86 135 0.0 0.0 0.00 0.00 0.00 69 1011.4
20260506161431 86 135 0.0 0.0 0.00 0.00 0.00 69 1011.5
20260506160929 86 135 0.0 0.0 0.00 0.00 0.00 69 1011.4
20260506160432 86 135 0.0 0.0 0.00 0.00 0.00 69 1011.4
20260506155927 86 135 0.0 0.0 0.00 0.00 0.00 69 1011.6
20260506155426 86 135 0.0 0.0 0.00 0.00 0.00 69 1011.6
20260506154925 86 135 0.0 0.0 0.00 0.00 0.00 69 1011.6
20260506154426 86 135 0.0 0.0 0.00 0.00 0.00 69 1011.6
20260506153428 86 135 0.0 0.0 0.00 0.00 0.00 69 1011.4
20260506152922 86 135 0.0 0.0 0.00 0.00 0.00 69 1011.4
20260506152420 86 135 0.0 0.0 0.00 0.00 0.00 69 1011.7
20260506151420 86 135 0.0 0.0 0.00 0.00 0.00 69 1011.6
20260506150917 86 135 0.0 0.0 0.00 0.00 0.00 69 1011.6
20260506145916 86 135 0.0 0.0 0.00 0.00 0.00 69 1011.6
20260506145422 86 135 0.0 0.0 0.00 0.00 0.00 69 1011.5
20260506144411 86 135 0.0 0.0 0.00 0.00 0.00 68 1011.6
20260506143910 86 148 0.0 0.0 0.00 0.00 0.00 68 1011.4
20260506143411 86 135 0.0 0.0 0.00 0.00 0.00 68 1011.4
20260506142908 86 135 0.0 0.0 0.00 0.00 0.00 68 1011.5
20260506141906 87 153 0.0 0.0 0.00 0.00 0.00 68 1011.4
20260506141405 87 135 0.0 0.0 0.00 0.00 0.00 68 1011.1
20260506140904 87 145 0.0 0.0 0.00 0.00 0.00 68 1011.0
20260506140403 87 160 0.0 0.0 0.00 0.00 0.00 67 1011.0
20260506135909 87 138 0.0 0.0 0.00 0.00 0.00 67 1010.8
20260506135401 87 135 0.0 0.0 0.00 0.00 0.00 67 1010.8
20260506134900 87 135 0.0 0.0 0.00 0.00 0.00 67 1010.7
20260506134359 87 135 0.0 0.0 0.00 0.00 0.00 67 1010.5
20260506133858 87 135 0.0 0.0 0.00 0.00 0.00 67 1010.2
20260506133405 87 135 0.0 0.0 0.00 0.00 0.00 67 1010.2
20260506132856 87 135 0.0 0.0 0.00 0.00 0.00 67 1010.1
20260506132357 87 135 0.0 0.0 0.00 0.00 0.00 67 1010.1
20260506131355 87 135 0.0 0.0 0.00 0.00 0.00 66 1010.2
20260506130350 87 135 0.0 0.0 0.00 0.00 0.00 66 1010.2
20260506125852 87 135 0.0 0.0 0.00 0.00 0.00 66 1010.1
20260506124847 87 135 0.0 0.0 0.00 0.00 0.00 66 1010.2
20260506124353 87 135 0.0 0.0 0.00 0.00 0.00 66 1010.3
20260506123845 87 135 0.0 0.0 0.00 0.00 0.00 66 1010.2
20260506123344 87 135 0.0 0.0 0.00 0.00 0.00 66 1010.3
20260506122843 87 135 0.0 0.0 0.00 0.00 0.00 65 1010.2
20260506122342 88 135 0.0 0.0 0.00 0.00 0.00 65 1010.0
20260506121846 88 135 0.0 0.0 0.00 0.00 0.00 65 1010.0
20260506120839 88 135 0.0 0.0 0.00 0.00 0.00 65 1009.9
20260506120340 88 135 0.0 0.0 0.00 0.00 0.00 65 1009.8
20260506115837 88 135 0.0 0.0 0.00 0.00 0.00 65 1009.7
20260506114835 88 135 0.0 0.0 0.00 0.00 0.00 65 1009.5
20260506114335 88 135 0.0 0.0 0.00 0.00 0.00 65 1009.4
20260506113839 88 135 0.0 0.0 0.00 0.00 0.00 65 1009.2
20260506113334 88 135 0.0 0.0 0.00 0.00 0.00 65 1009.2
20260506112834 88 135 0.0 0.0 0.00 0.00 0.00 65 1009.1
20260506112329 88 135 0.0 0.0 0.00 0.00 0.00 65 1009.1
20260506111835 88 136 0.0 0.0 0.00 0.00 0.00 65 1009.1
20260506111327 88 135 0.0 0.0 0.00 0.00 0.00 65 1009.0
20260506110828 88 135 0.0 0.0 0.00 0.00 0.00 64 1008.8
20260506105827 88 135 0.0 0.0 0.00 0.00 0.00 64 1008.7
20260506105323 88 135 0.0 0.0 0.00 0.00 0.00 64 1008.8
20260506104822 88 135 0.0 0.0 0.00 0.00 0.00 64 1008.8
20260506104321 88 135 0.0 0.0 0.00 0.00 0.00 64 1008.7
20260506103319 88 135 0.0 0.0 0.00 0.00 0.00 64 1008.5
20260506102824 88 135 0.0 0.0 0.00 0.00 0.00 64 1008.3
20260506102317 88 135 0.0 0.0 0.00 0.00 0.00 64 1008.3
20260506101816 88 135 0.0 0.0 0.00 0.00 0.00 64 1008.4
20260506101321 88 135 0.0 0.0 0.00 0.00 0.00 64 1008.2
20260506100814 88 135 0.0 0.0 0.00 0.00 0.00 64 1008.3
20260506100314 88 135 0.0 0.0 0.00 0.00 0.00 64 1008.4
20260506095819 88 135 0.0 0.0 0.00 0.00 0.00 64 1008.4
20260506095319 88 135 0.0 0.0 0.00 0.00 0.00 64 1008.4
20260506094308 88 135 0.0 0.0 0.00 0.00 0.00 65 1008.3
20260506093808 88 135 0.0 0.0 0.00 0.00 0.00 65 1008.2
20260506093306 88 135 0.0 0.0 0.00 0.00 0.00 65 1008.1
20260506092806 88 135 0.0 0.0 0.00 0.00 0.00 65 1008.1
20260506092311 88 135 0.0 0.0 0.00 0.00 0.00 65 1008.1
20260506091806 88 135 0.0 0.0 0.00 0.00 0.00 65 1008.1
20260506091304 88 135 0.0 0.0 0.00 0.00 0.00 65 1008.0
20260506090804 88 135 0.0 0.0 0.00 0.00 0.00 64 1008.1
20260506090300 88 135 0.0 0.0 0.00 0.00 0.00 64 1008.1
20260506085805 88 135 0.0 0.0 0.00 0.00 0.00 64 1008.0
20260506084757 88 135 0.0 0.0 0.00 0.00 0.00 64 1008.0
20260506084256 88 135 0.0 0.0 0.00 0.00 0.00 64 1008.1
20260506083755 88 144 0.0 0.0 0.00 0.00 0.00 64 1008.2
20260506082753 89 135 0.0 0.0 0.00 0.00 0.00 64 1008.4
20260506082253 89 152 0.0 0.0 0.00 0.00 0.00 64 1008.4
20260506081753 89 135 0.0 0.0 0.00 0.00 0.00 63 1008.5
20260506081251 89 135 0.0 0.0 0.00 0.00 0.00 63 1008.4
20260506080755 89 143 0.0 0.0 0.00 0.00 0.00 63 1008.5
20260506080247 89 135 0.0 0.0 0.00 0.00 0.00 63 1008.5
20260506073241 90 153 0.0 0.0 0.00 0.00 0.00 62 1008.7
20260506072741 90 138 0.0 0.0 0.00 0.00 0.00 62 1008.7
20260506071748 90 139 0.0 0.0 0.00 0.00 0.00 62 1008.9
20260506071238 90 156 0.0 0.0 0.00 0.00 0.00 62 1009.0
20260506070737 90 150 0.0 0.0 0.00 0.00 0.00 62 1009.0
20260506070235 90 135 0.0 0.0 0.00 0.00 0.00 62 1009.0
20260506061732 90 135 0.0 0.0 0.00 0.00 0.00 62 1009.4
20260506061224 90 135 0.0 0.0 0.00 0.00 0.00 62 1009.5
20260506060723 90 135 0.0 0.0 0.00 0.00 0.00 62 1009.5
20260506050710 91 135 0.0 0.0 0.00 0.00 0.00 63 1010.0
20260506050210 91 135 0.0 0.0 0.00 0.00 0.00 63 1009.8
20260506044713 91 157 0.0 0.0 0.00 0.00 0.00 63 1010.2
20260506044207 90 180 0.0 0.0 0.00 0.00 0.00 64 1010.3
20260506043704 90 135 0.0 0.0 0.00 0.00 0.00 64 1010.3
20260506043203 90 135 0.0 0.0 0.00 0.00 0.00 64 1010.4
20260506042208 90 135 0.0 0.0 0.00 0.00 0.00 65 1010.5
20260506041159 90 135 0.0 0.0 0.00 0.00 0.00 66 1010.7
20260506040700 89 135 0.0 0.0 0.00 0.00 0.00 66 1010.6
20260506035658 89 135 0.0 0.0 0.00 0.00 0.00 67 1010.7
20260506035156 89 135 0.0 0.0 0.00 0.00 0.00 67 1011.0
20260506034654 89 143 0.0 0.0 0.00 0.00 0.00 67 1011.1
20260506033157 88 150 0.0 0.0 0.00 0.00 0.00 69 1011.1
20260506032656 88 135 0.0 0.0 0.00 0.00 0.00 69 1011.3
20260506032155 88 135 0.0 0.0 0.00 0.00 0.00 69 1011.3
20260506031654 88 135 0.0 0.0 0.00 0.00 0.00 70 1011.4
20260506031148 87 135 0.0 0.0 0.00 0.00 0.00 70 1011.5
20260506030145 87 135 0.0 0.0 0.00 0.00 0.00 71 1011.6
20260506025643 87 135 0.0 0.0 0.00 0.00 0.00 71 1011.7
20260506025142 86 135 0.0 0.0 0.00 0.00 0.00 72 1011.7
20260506024641 86 135 0.0 0.0 0.00 0.00 0.00 72 1011.7
20260506024142 86 135 0.0 0.0 0.00 0.00 0.00 72 1011.8
20260506023639 86 157 0.0 0.0 0.00 0.00 0.00 72 1011.7
20260506023138 86 135 0.0 0.0 0.00 0.00 0.00 72 1011.7
20260506022637 85 135 0.0 0.0 0.00 0.00 0.00 73 1011.6
20260506022137 85 157 0.0 0.0 0.00 0.00 0.00 73 1011.6
20260506021135 85 135 0.0 0.0 0.00 0.00 0.00 73 1011.7
20260506020634 85 135 0.0 0.0 0.00 0.00 0.00 73 1011.6
20260506020133 85 135 0.0 0.0 0.00 0.00 0.00 73 1011.6
20260506014629 84 169 0.0 0.0 0.00 0.00 0.00 73 1011.5
20260506014134 84 157 0.0 0.0 0.00 0.00 0.00 73 1011.5
20260506013628 84 135 0.0 0.0 0.00 0.00 0.00 73 1011.5
20260506013127 84 135 0.0 0.0 0.00 0.00 0.00 73 1011.5
20260506012634 83 135 0.0 0.0 0.00 0.00 0.00 73 1011.5
20260506012123 83 135 0.0 0.0 0.00 0.00 0.00 73 1011.6
20260506011622 83 135 0.0 0.0 0.00 0.00 0.00 73 1011.6
20260506011121 83 135 0.0 0.0 0.00 0.00 0.00 73 1011.6
20260506010620 83 135 0.0 0.0 0.00 0.00 0.00 73 1011.5
20260506005619 83 135 0.0 0.0 0.00 0.00 0.00 73 1011.4
20260506005117 83 135 0.0 0.0 0.00 0.00 0.00 73 1011.3
20260506004616 83 135 0.0 0.0 0.00 0.00 0.00 73 1011.3
20260506004115 83 135 0.0 0.0 0.00 0.00 0.00 73 1011.1
20260506003616 83 135 0.0 0.0 0.00 0.00 0.00 73 1011.1
20260506003114 83 135 0.0 0.0 0.00 0.00 0.00 73 1011.0
20260506002613 83 135 0.0 0.0 0.00 0.00 0.00 73 1010.9
20260506002114 83 135 0.0 0.0 0.00 0.00 0.00 73 1010.9
20260506001611 83 157 0.0 0.0 0.00 0.00 0.00 73 1010.8
20260506000608 83 135 0.0 0.0 0.00 0.00 0.00 73 1010.7
20260506000107 83 135 0.0 0.0 0.00 0.00 0.00 73 1010.6
20260505234610 83 135 0.0 0.0 0.00 0.00 0.00 72 1010.4
20260505234109 83 135 0.0 0.0 0.00 0.00 0.00 72 1010.3
20260505233602 83 135 0.0 0.0 0.00 0.00 0.00 72 1010.3
20260505233100 83 135 0.0 0.0 0.00 0.00 0.00 72 1010.3
20260505232559 83 135 0.0 0.0 0.00 0.00 0.00 72 1010.3
20260505232113 83 135 0.0 0.0 0.00 0.00 0.00 72 1010.2
20260505231557 83 135 0.0 0.0 0.00 0.00 0.00 72 1010.3
20260505231056 83 135 0.0 0.0 0.00 0.00 0.00 72 1010.2
20260505225602 83 135 0.0 0.0 0.00 0.00 0.00 72 1010.0
20260505225053 83 135 0.0 0.0 0.00 0.00 0.00 72 1010.0
20260505224552 83 135 0.0 0.0 0.00 0.00 0.00 72 1009.9
20260505224050 83 135 0.0 0.0 0.00 0.00 0.00 72 1009.9
20260505223549 83 135 0.0 0.0 0.00 0.00 0.00 72 1009.9
20260505223055 83 135 0.0 0.0 0.00 0.00 0.00 72 1009.9
20260505222546 83 135 0.0 0.0 0.00 0.00 0.00 72 1009.8
20260505222047 83 135 0.0 0.0 0.00 0.00 0.00 72 1009.7
20260505221047 83 135 0.0 0.0 0.00 0.00 0.00 72 1009.8
20260505220547 83 135 0.0 0.0 0.00 0.00 0.00 72 1009.7
20260505220041 83 135 0.0 0.0 0.00 0.00 0.00 72 1009.7
20260505215540 83 135 0.0 0.0 0.00 0.00 0.00 72 1009.6
20260505215039 83 135 0.0 0.0 0.00 0.00 0.00 72 1009.6
20260505214540 83 135 0.0 0.0 0.00 0.00 0.00 72 1009.6
20260505214050 83 135 0.0 0.0 0.00 0.00 0.00 72 1009.5
20260505213536 83 135 0.0 0.0 0.00 0.00 0.00 71 1009.4
20260505213035 83 135 0.0 0.0 0.00 0.00 0.00 71 1009.5
20260505212534 83 135 0.0 0.0 0.00 0.00 0.00 71 1009.4
20260505212033 83 135 0.0 0.0 0.00 0.00 0.00 71 1009.4
20260505211539 83 135 0.0 0.0 0.00 0.00 0.00 71 1009.5
20260505205528 83 135 0.0 0.0 0.00 0.00 0.00 71 1009.7
20260505205040 83 135 0.0 0.0 0.00 0.00 0.00 71 1009.8
20260505204526 83 135 0.0 0.0 0.00 0.00 0.00 71 1009.8
20260505204025 83 135 0.0 0.0 0.00 0.00 0.00 71 1009.9
20260505203525 83 135 0.0 0.0 0.00 0.00 0.00 71 1009.8
20260505203024 83 135 0.0 0.0 0.00 0.00 0.00 71 1009.8
20260505202021 83 135 0.0 0.0 0.00 0.00 0.00 71 1009.8